CST,Max TemperatureF,Mean TemperatureF,Min TemperatureF,Max Dew PointF,MeanDew PointF,Min DewpointF,Max Humidity, Mean Humidity, Min Humidity, Max Sea Level PressureIn, Mean Sea Level PressureIn, Min Sea Level PressureIn, Max VisibilityMiles, Mean VisibilityMiles, Min VisibilityMiles, Max Wind SpeedMPH, Mean Wind SpeedMPH, Max Gust SpeedMPH,PrecipitationIn, CloudCover, Events, WindDirDegrees
2013-2-1,29,18,6,14,8,0,80,65,50,30.53,30.35,30.17,10,10,10,16,6,20,0.00,2,,181
2013-2-2,51,39,27,34,26,15,69,60,50,30.25,30.19,30.13,10,10,10,15,7,19,0.00,2,,268
2013-2-3,52,41,30,28,23,17,78,53,27,30.32,30.12,29.84,10,10,10,16,9,23,0.00,0,,220
2013-2-4,49,36,23,29,25,20,81,62,42,30.03,29.94,29.81,10,10,9,20,7,25,0.00,0,,349
2013-2-5,62,43,23,31,26,19,88,58,27,30.12,30.02,29.94,10,9,0,18,5,23,0.00,0,,312
2013-2-6,65,45,24,45,34,20,85,60,34,30.10,29.98,29.86,10,10,10,24,9,31,T,3,,150
2013-2-7,55,44,33,47,38,26,93,74,54,30.26,30.01,29.86,10,6,2,21,10,26,0.53,6,Rain,324
2013-2-8,47,39,30,30,27,24,82,66,49,30.38,30.30,30.22,10,9,7,15,7,18,0.00,4,,73
2013-2-9,54,43,31,38,32,27,85,68,50,30.22,29.97,29.74,10,8,5,23,13,29,T,4,Rain,136
2013-2-10,50,44,38,44,34,23,96,69,42,29.96,29.63,29.46,10,8,2,30,18,43,0.07,6,Rain,201
2013-2-11,48,38,27,24,22,20,75,55,34,30.21,30.14,29.98,10,10,10,16,9,22,0.00,0,,277
2013-2-12,44,33,21,25,22,19,85,61,37,30.22,30.10,29.99,10,10,10,8,2,10,0.00,2,,214
2013-2-13,57,40,23,26,23,21,81,53,25,29.98,29.90,29.83,10,10,10,21,7,27,0.00,0,,260
2013-2-14,52,41,29,32,25,21,78,56,34,30.24,30.06,29.87,10,10,10,22,9,28,0.00,1,,287
2013-2-15,41,30,19,29,20,7,85,59,32,30.45,30.34,30.27,10,8,0,23,10,32,0.04,5,Fog-Snow,315
2013-2-16,39,30,20,24,20,15,85,63,40,30.36,30.25,30.07,10,9,2,15,8,21,0.01,7,Snow,233
2013-2-17,61,43,24,33,25,16,74,53,32,30.06,29.87,29.62,10,10,10,23,10,33,0.00,0,,137
2013-2-18,57,42,27,42,28,16,64,49,33,30.13,29.76,29.48,10,10,10,31,16,41,0.00,3,,290
2013-2-19,39,30,20,17,8,-1,74,48,21,30.40,30.30,30.14,10,10,10,24,9,31,0.00,0,,318
2013-2-20,28,22,16,12,7,3,55,47,39,30.41,30.31,30.20,10,10,10,16,9,,0.00,6,,70
2013-2-21,27,24,21,24,20,13,88,72,55,30.21,29.88,29.77,10,3,0,25,12,35,0.40,8,Fog-Rain-Snow-Thunderstorm,59
2013-2-22,28,22,16,21,16,11,88,75,62,30.13,30.02,29.81,10,9,3,16,10,24,T,4,Snow,269
2013-2-23,35,18,1,22,8,-3,92,74,56,30.13,30.04,29.97,10,4,0,12,3,14,0.00,0,Fog,135
2013-2-24,45,28,10,27,17,7,100,75,49,30.04,29.99,29.92,10,5,0,15,5,18,T,2,Fog-Rain,77
2013-2-25,38,35,31,31,28,23,82,73,64,29.99,29.86,29.74,10,5,1,21,12,28,0.15,6,Snow,21
2013-2-26,36,34,32,31,29,28,89,82,75,29.91,29.75,29.67,5,2,0,29,17,38,0.15,8,Fog-Snow,338
2013-2-27,42,36,29,28,26,24,92,72,51,30.12,29.98,29.87,10,5,1,24,14,31,0.04,6,Snow,294
2013-2-28,35,33,30,26,24,23,78,72,66,30.25,30.21,30.11,10,10,8,21,11,28,0.00,8,,334